TimePST,TemperatureF,Dew PointF,Humidity,Sea Level PressureIn,VisibilityMPH,Wind Direction,Wind SpeedMPH,Gust SpeedMPH,PrecipitationIn,Events,Conditions,WindDirDegrees,DateUTC
12:53 AM,27.0,25.0,92,30.21,10.0,Calm,Calm,-,N/A,,Clear,0,2013-03-09 08:53:00
1:53 AM,28.0,26.1,92,30.22,10.0,Calm,Calm,-,N/A,,Clear,0,2013-03-09 09:53:00
2:53 AM,25.0,23.0,92,30.23,10.0,Calm,Calm,-,N/A,,Clear,0,2013-03-09 10:53:00
4:53 AM,25.0,23.0,92,30.28,10.0,NNW,3.5,-,N/A,,Clear,330,2013-03-09 12:53:00
5:53 AM,24.1,21.9,91,30.30,10.0,North,3.5,-,N/A,,Clear,350,2013-03-09 13:53:00
6:53 AM,24.1,21.9,91,30.32,10.0,North,4.6,-,N/A,,Clear,350,2013-03-09 14:53:00
7:53 AM,32.0,30.0,92,30.35,10.0,Calm,Calm,-,N/A,,Clear,0,2013-03-09 15:53:00
8:53 AM,39.9,33.1,77,30.36,10.0,Calm,Calm,-,N/A,,Clear,0,2013-03-09 16:53:00
9:53 AM,45.0,34.0,65,30.36,10.0,Calm,Calm,-,N/A,,Clear,0,2013-03-09 17:53:00
10:53 AM,52.0,32.0,47,30.38,10.0,North,5.8,-,N/A,,Clear,350,2013-03-09 18:53:00
11:53 AM,53.1,30.9,43,30.38,10.0,SSE,3.5,-,N/A,,Clear,160,2013-03-09 19:53:00
12:53 PM,55.0,32.0,42,30.38,10.0,Calm,Calm,-,N/A,,Clear,0,2013-03-09 20:53:00
1:53 PM,57.9,30.9,36,30.37,10.0,Calm,Calm,-,N/A,,Clear,0,2013-03-09 21:53:00
2:53 PM,57.9,30.0,35,30.36,10.0,Calm,Calm,-,N/A,,Clear,0,2013-03-09 22:53:00
3:53 PM,57.9,30.9,36,30.37,10.0,SSE,5.8,-,N/A,,Clear,160,2013-03-09 23:53:00
4:53 PM,57.9,32.0,37,30.36,10.0,SE,5.8,-,N/A,,Clear,130,2013-03-10 00:53:00
5:53 PM,53.1,32.0,45,30.37,10.0,SE,6.9,-,N/A,,Clear,140,2013-03-10 01:53:00
6:53 PM,45.0,30.9,58,30.38,10.0,East,3.5,-,N/A,,Clear,100,2013-03-10 02:53:00
7:53 PM,42.1,32.0,67,30.40,10.0,East,3.5,-,N/A,,Clear,80,2013-03-10 03:53:00
8:53 PM,37.9,30.9,76,30.40,10.0,Calm,Calm,-,N/A,,Clear,0,2013-03-10 04:53:00
9:53 PM,36.0,30.0,79,30.42,10.0,Calm,Calm,-,N/A,,Clear,0,2013-03-10 05:53:00
10:53 PM,33.1,28.0,82,30.42,10.0,Calm,Calm,-,N/A,,Clear,0,2013-03-10 06:53:00
11:53 PM,30.0,26.1,85,30.42,10.0,North,3.5,-,N/A,,Clear,10,2013-03-10 07:53:00